| time (UTC) | temp C | wind direction | speed KPH | gust KPH | rain 1hr cm | rain 24hr cm | rain mn cm | humidity % | barometer mb |
| 20260506163016 | 16 | 248 | 1.6 | 8.0 | 0.00 | 0.79 | 0.79 | 90 | 1007.0 |
| 20260506160016 | 16 | 180 | 1.6 | 20.9 | 0.00 | 0.79 | 0.79 | 90 | 1007.0 |
| 20260506153016 | 16 | 135 | 1.6 | 9.7 | 0.05 | 0.79 | 0.79 | 91 | 1007.0 |
| 20260506150016 | 16 | 180 | 1.6 | 11.3 | 0.33 | 0.79 | 0.79 | 91 | 1006.8 |
| 20260506143016 | 15 | 225 | 1.6 | 14.5 | 0.36 | 0.74 | 0.74 | 91 | 1007.7 |
| 20260506140016 | 15 | 270 | 1.6 | 11.3 | 0.18 | 0.46 | 0.46 | 91 | 1007.7 |
| 20260506133016 | 15 | 203 | 1.6 | 12.9 | 0.15 | 0.38 | 0.38 | 91 | 1007.5 |
| 20260506130016 | 15 | 248 | 1.6 | 9.7 | 0.08 | 0.28 | 0.28 | 90 | 1007.7 |
| 20260506123016 | 15 | 248 | 1.6 | 8.0 | 0.13 | 0.23 | 0.23 | 90 | 1007.6 |
| 20260506120016 | 15 | 158 | 1.6 | 9.7 | 0.18 | 0.20 | 0.20 | 88 | 1007.8 |
| 20260506113016 | 16 | 225 | 1.6 | 6.4 | 0.10 | 0.10 | 0.10 | 85 | 1008.2 |
| 20260506110016 | 17 | 248 | 1.6 | 6.4 | 0.03 | 0.03 | 0.03 | 79 | 1007.6 |
| 20260506103016 | 18 | 225 | 1.6 | 11.3 | 0.00 | 0.00 | 0.00 | 72 | 1007.2 |
| 20260506100020 | 18 | 225 | 3.2 | 16.1 | 0.00 | 0.00 | 0.00 | 64 | 1007.0 |
| 20260506093020 | 18 | 248 | 3.2 | 9.7 | 0.00 | 0.00 | 0.00 | 63 | 1007.0 |
| 20260506090020 | 19 | 203 | 1.6 | 8.0 | 0.00 | 0.00 | 0.00 | 61 | 1007.2 |
| 20260506083040 | 19 | 248 | 1.6 | 12.9 | 0.00 | 0.00 | 0.00 | 61 | 1007.5 |
| 20260506073016 | 19 | 293 | 1.6 | 8.0 | 0.00 | 0.00 | 0.00 | 58 | 1007.4 |
| 20260506043016 | 21 | 248 | 3.2 | 20.9 | 0.00 | 0.00 | 0.00 | 45 | 1008.9 |
| 20260506040016 | 22 | 248 | 3.2 | 12.9 | 0.00 | 0.00 | 0.00 | 43 | 1008.7 |
| 20260506033015 | 21 | 248 | 3.2 | 14.5 | 0.00 | 0.00 | 0.00 | 43 | 1008.8 |
| 20260506030017 | 21 | 225 | 3.2 | 11.3 | 0.00 | 0.00 | 0.00 | 42 | 1008.6 |
| 20260506023037 | 22 | 248 | 3.2 | 9.7 | 0.00 | 0.00 | 0.00 | 38 | 1009.0 |
| 20260506020037 | 22 | 248 | 3.2 | 17.7 | 0.00 | 0.00 | 0.00 | 37 | 1009.0 |
| 20260506013017 | 22 | 225 | 3.2 | 9.7 | 0.00 | 0.03 | 0.00 | 37 | 1008.5 |
| 20260506010017 | 23 | 225 | 3.2 | 14.5 | 0.00 | 0.03 | 0.00 | 36 | 1008.2 |
| 20260506003017 | 23 | 180 | 1.6 | 17.7 | 0.00 | 0.03 | 0.00 | 38 | 1007.7 |
| 20260506000022 | 24 | 225 | 4.8 | 16.1 | 0.00 | 0.03 | 0.00 | 35 | 1007.6 |
| 20260505233037 | 25 | 248 | 4.8 | 17.7 | 0.00 | 0.03 | 0.00 | 36 | 1007.4 |
| 20260505230037 | 25 | 225 | 4.8 | 17.7 | 0.00 | 0.03 | 0.00 | 36 | 1007.4 |
| 20260505223017 | 25 | 225 | 4.8 | 19.3 | 0.00 | 0.03 | 0.00 | 35 | 1007.4 |
| 20260505220017 | 26 | 225 | 4.8 | 20.9 | 0.00 | 0.03 | 0.00 | 36 | 1007.7 |
| 20260505213017 | 27 | 225 | 6.4 | 19.3 | 0.00 | 0.03 | 0.00 | 35 | 1007.3 |
| 20260505210017 | 27 | 248 | 6.4 | 19.3 | 0.00 | 0.03 | 0.00 | 31 | 1007.2 |
| 20260505203017 | 27 | 248 | 6.4 | 22.5 | 0.00 | 0.03 | 0.00 | 37 | 1007.2 |
| 20260505200017 | 27 | 225 | 6.4 | 24.1 | 0.00 | 0.03 | 0.00 | 36 | 1007.4 |
| 20260505193017 | 27 | 270 | 4.8 | 22.5 | 0.00 | 0.03 | 0.00 | 39 | 1007.7 |
| 20260505190017 | 27 | 225 | 6.4 | 27.4 | 0.00 | 0.03 | 0.00 | 37 | 1008.0 |
| 20260505183037 | 27 | 248 | 4.8 | 19.3 | 0.00 | 0.03 | 0.00 | 38 | 1008.4 |
| 20260505180037 | 26 | 270 | 6.4 | 22.5 | 0.00 | 0.03 | 0.00 | 39 | 1008.6 |
| 20260505173017 | 26 | 225 | 6.4 | 32.2 | 0.00 | 0.03 | 0.00 | 39 | 1009.0 |
| 20260505170017 | 26 | 248 | 6.4 | 27.4 | 0.00 | 0.03 | 0.00 | 40 | 1009.4 |